sat.trackr.live / text

‹ back to catalog

QB50P2

NORAD 40032 · 2014-033Y

PAYLOAD ACTIVE UNKNOWN

§ Identity

Operator
Country
BEL
Launch date
2014-06-19
Launch site
DLS
Launch vehicle
Mass (kg)
RCS (m²)
0.06

Purposes: tech_demo

External: N2YO · Heavens-Above · Gunter

§ Orbital elements

Epoch: 2026-05-24T23:35:54.000096Z

Period
95.06 min
Inclination
98.0755°
Eccentricity
0.0005750
Mean motion
15.14810965 rev/d
Perigee alt
517.6 km
Apogee alt
525.5 km
Semi-major
6,899.7 km
B*
3.3357e-4
RAAN
140.4260°
Arg perigee
249.4855°
Mean anomaly
110.5758°
Rev number
64,915

§ Raw data

QB50P21 40032U 14033Y   26144.98326389  .00006124  00000+0  33357-3 0  99912 40032  98.0755 140.4260 0005750 249.4855 110.5758 15.14810965649158

JSON: /api/v1/satellites/40032 · /tle

For live sub-satellite position, see the globe view (requires WebGL).

§ Visibility from observer

Set your observer location to see the next 7 days of passes ≥ 10°. The values pass through the URL so the page stays shareable.

No JS? Fill the form by hand. The geolocation button needs JavaScript.

§ Radio — SatNOGS DB

ModeDescriptionDownlinkUplink
CW CW Beacon 145.880 MHz
BPSK PE0SAT - 1k2 BPSK TLM 145.879 MHz

2 transmitters · refreshed weekly from db.satnogs.org